Flag for Bahrain Weather past 2 weeks in Manama, Bahrain

Now
99 °F

Sunny.


Feels Like: 100 °F
Forecast: 83 / 100 °F
Wind: 20 mph from Northwest

Location: Bahrain International Airport

Current Time: May 29, 2015 at 12:22:46 PM

Latest Report: May 29, 2015 at 11:00 AM


Visibility: 10 mi

Pressure: 29.65 "Hg

Humidity: 31%

Dew point: 63 °F

Location of ManamaLocation

Historic Weather in Manama — Graph

°F

Manama temperature yesterday

Maximum temperature yesterday: 99 °F (at 1:00 PM)
Minimum temperature yesterday: 88 °F (at 5:00 AM)
Average temperature yesterday: 94 °F

Past Weeks' High & Low Weather Summary

 TemperatureHumidityPressure
High106 °F (May 22, 10:00 AM)70% (May 23, 9:00 PM)29.83 "Hg (May 23, 9:00 PM)
Low81 °F (May 19, 2:00 AM)10% (May 20, 1:00 PM)29.59 "Hg (May 23, 3:00 PM)
Average91 °F37%29.72 "Hg
* Reported May 14 11:00 AM — May 29 11:00 AM, Manama, Weather by CustomWeather, © 2015

Note: Actual official high and low records may vary slightly from our data, if they occured in-between our weather recording intervals... More about our weather records

Advertising

Manama weather history for previous 24 hours

 ConditionsComfort  
Time TempWeatherWind HumidityBarometerVisibility
11:00 AM
Fri, May 29
99 °FSunny.20 mph31%29.65 "Hg10 mi
10:00 AM97 °FSunny.20 mph34%29.65 "Hg10 mi
9:00 AM95 °FSunny.21 mph34%29.65 "Hg10 mi
8:00 AM93 °FSunny.17 mph34%29.65 "Hg10 mi
7:00 AM91 °FSunny.12 mph34%29.65 "Hg10 mi
6:00 AM91 °FSunny.9 mph34%29.62 "Hg10 mi
5:00 AM90 °FSunny.10 mph36%29.62 "Hg10 mi
4:00 AM91 °FClear.10 mph32%29.59 "Hg10 mi
3:00 AM91 °FClear.8 mph36%29.59 "Hg10 mi
2:00 AM91 °FClear.9 mph36%29.59 "Hg10 mi
1:00 AM93 °FClear.10 mph28%29.59 "Hg10 mi
12:00 AM93 °FClear.9 mph28%29.62 "Hg10 mi
11:00 PM
Thu, May 28
95 °FClear.10 mph20%29.62 "Hg10 mi
10:00 PM93 °FClear.10 mph24%29.65 "Hg10 mi
9:00 PM93 °FClear.12 mph21%29.65 "Hg10 mi
8:00 PM95 °FClear.12 mph15%29.62 "Hg10 mi
7:00 PM93 °FClear.12 mph28%29.62 "Hg10 mi
6:00 PM93 °FSunny.14 mph30%29.62 "Hg10 mi
5:00 PM95 °FSunny.15 mph26%29.65 "Hg10 mi
4:00 PM97 °FSunny.15 mph25%29.65 "Hg10 mi
3:00 PM99 °FSunny.16 mph24%29.68 "Hg10 mi
2:00 PM99 °FSunny.18 mph24%29.68 "Hg10 mi
1:00 PM99 °FSunny.17 mph25%29.71 "Hg10 mi
12:00 PM97 °FSunny.17 mph32%29.71 "Hg6 mi
Weather by CustomWeather, © 2015

See weather overviewHow to use our weather pages